カタログに戻る

FENGYUN 1C DEB

運用中SSO
NORAD 31163·DEBRIS·🇨🇳 China

打ち上げ May 10, 1999 から Taiyuan Satellite Launch Center

Loading…

次のパス (今後24時間)

TLE

最新Source: Space-Track

元期: Sep 11, 2026, 11:23 UTC

1 31163U 99025BHR 26254.47445320  .00000681  00000-0  26357-3 0  9998
2 31163  98.9464 136.2918 0053406 176.4635 183.6936 14.32691491686462

AllMySatでFENGYUN 1C DEBをリアルタイム追跡

Download on the App Store